This demonstration page uses our WeatherBlox Daily Observations layout. Learn more.

Left ArrowRight Arrow

31.84235, -102.49876

Hourly Observations for March 23, 2015

Temp ( °F °C ) Dew Point ( °F °C ) Humidity (%) Winds ( mph kmh ) Pressure ( in mb ) Visibility ( mi km ) Precip ( " mm )
12:53 am 00:53 Clear 57 13.9 42 5.6 58 58 WSW 3 6 29.98 1015 10 16 0.00 0.00
1:53 am 01:53 Clear 56 13.3 43 6.1 62 62 WSW 6 9 29.97 1015 10 16 0.00 0.00
2:53 am 02:53 Clear 57 13.9 44 6.7 62 62 W 9 15 29.96 1015 10 16 0.00 0.00
3:53 am 03:53 undefined 56 13.3 44 6.7 65 65 W 7 11 29.96 1014 10 16 0.00 0.00
4:53 am 04:53 undefined 55 12.8 42 5.6 62 62 W 7 11 29.95 1014 10 16 0.00 0.00
5:53 am 05:53 undefined 54 12.2 41 5 62 62 W 6 9 29.94 1014 10 16 0.00 0.00
6:53 am 06:53 Clear 50 10 41 5 71 71 S 6 9 29.96 1015 10 16 0.00 0.00
7:53 am 07:53 Sunny 52 11.1 40 4.4 64 64 SW 3 6 29.98 1015 10 16 0.00 0.00
8:53 am 08:53 undefined 54 12.2 43 6.1 67 67 Calm 30.00 1016 8 13 0.00 0.00
9:53 am 09:53 Sunny 63 17.2 43 6.1 48 48 WSW 8 13 30.00 1016 10 16 0.00 0.00
10:53 am 10:53 Sunny 67 19.4 43 6.1 42 42 WSW 9 15 30.00 1016 10 16 0.00 0.00
11:53 am 11:53 Sunny 71 21.7 44 6.7 38 38 SW 10 17 30.00 1016 10 16 0.00 0.00
12:53 pm 12:53 Sunny 75 23.9 43 6.1 32 32 SW 13 20 29.98 1015 10 16 0.00 0.00
1:53 pm 13:53 Sunny 78 25.6 41 5 27 27 SW 14 22 29.96 1015 10 16 0.00 0.00
2:53 pm 14:53 Sunny 80 26.7 39 3.9 23 23 WSW 8 13 29.92 1013 10 16 0.00 0.00
3:53 pm 15:53 Sunny 82 27.8 37 2.8 20 20 WSW 12 19 29.89 1012 10 16 0.00 0.00
4:53 pm 16:53 Sunny 82 27.8 39 3.9 22 22 SW 16 26 29.87 1012 10 16 0.00 0.00
5:53 pm 17:53 Sunny 82 27.8 38 3.3 21 21 SW 18 30 29.85 1011 10 16 0.00 0.00
6:53 pm 18:53 Sunny 81 27.2 37 2.8 21 21 SW 15 24 29.85 1011 10 16 0.00 0.00
7:53 pm 19:53 Sunny 75 23.9 41 5 29 29 SW 7 11 29.86 1011 10 16 0.00 0.00
8:53 pm 20:53 Clear 70 21.1 42 5.6 37 37 S 8 13 29.87 1011 10 16 0.00 0.00
9:53 pm 21:53 Clear 67 19.4 42 5.6 41 41 S 7 11 29.87 1012 10 16 0.00 0.00
10:53 pm 22:53 Clear 68 20 41 5 38 38 S 15 24 29.87 1012 10 16 0.00 0.00
11:53 pm 23:53 Clear 68 20 45 7.2 44 44 S 18 30 29.87 1011 10 16 0.00 0.00

Powered by AerisWeather